EW7114 Weather Reports


time (UTC)temp
F
wind
direction
speed
knots
gust
knots
rain 1hr
in
rain 24hr
in
rain mn
in
humidity
%
barometer
mb
20200803144557 75 178 0.9 6.1 0.00 0.00 0.00 22 1004.8
20200803143106 73 206 2.6 5.2 0.00 0.00 0.00 22 1004.8
20200803141643 71 165 0.0 4.3 0.00 0.00 0.00 24 1004.9
20200803140200 70 170 0.0 6.1 0.00 0.00 0.00 23 1005.0
20200803134621 68 154 0.9 6.1 0.00 0.00 0.00 23 1005.0
20200803133100 64 169 0.9 4.3 0.00 0.00 0.00 24 1005.0
20200803131554 64 164 0.0 6.1 0.00 0.00 0.00 29 1004.7
20200803130050 64 202 0.0 7.0 0.00 0.00 0.00 27 1004.8
20200803124546 64 176 0.9 3.5 0.00 0.00 0.00 26 1004.7
20200803123046 65 170 2.6 5.2 0.00 0.00 0.00 25 1004.7
20200803121542 64 190 0.0 5.2 0.00 0.00 0.00 27 1004.7
20200803114522 66 178 5.2 7.0 0.00 0.00 0.00 21 1004.4
20200803113025 67 170 3.5 9.6 0.00 0.00 0.00 21 1004.4
20200803111539 67 143 0.0 5.2 0.00 0.00 0.00 25 1004.3
20200803110029 66 140 4.3 7.8 0.00 0.00 0.00 25 1004.2
20200803104536 59 138 3.5 7.0 0.00 0.00 0.00 30 1004.1
20200803103034 55 149 0.9 4.3 0.00 0.00 0.00 37 1003.9
20200803101506 52 145 0.0 2.6 0.00 0.00 0.00 44 1003.8
20200803100003 51 144 1.7 7.0 0.00 0.00 0.00 41 1003.6
20200803094502 53 172 0.0 4.3 0.00 0.00 0.00 42 1003.5
20200803093146 53 132 0.0 6.1 0.00 0.00 0.00 40 1003.3
20200803091613 54 149 0.0 4.3 0.00 0.00 0.00 44 1003.3
20200803090240 56 199 0.0 4.3 0.00 0.00 0.00 40 1003.2
20200803084710 55 124 0.0 0.9 0.00 0.00 0.00 44 1003.3
20200803083232 56 182 0.0 0.9 0.00 0.00 0.00 41 1003.3
20200803081708 56 212 0.0 0.0 0.00 0.00 0.00 40 1003.4
20200803080209 55 212 0.0 0.9 0.00 0.00 0.00 41 1003.3
20200803074617 58 132 0.0 4.3 0.00 0.00 0.00 36 1003.1
20200803073121 56 132 0.0 0.0 0.00 0.00 0.00 43 1003.6
20200803071655 56 130 0.0 0.0 0.00 0.00 0.00 48 1003.2
20200803070128 57 130 0.0 0.0 0.00 0.00 0.00 41 1003.1
20200803064631 58 130 0.0 0.0 0.00 0.00 0.00 43 1003.0
20200803063125 59 130 0.0 0.0 0.00 0.00 0.00 38 1002.8
20200803061547 60 130 0.0 0.0 0.00 0.00 0.00 36 1002.7
20200803060038 60 130 0.0 0.0 0.00 0.00 0.00 38 1002.6
20200803054614 62 130 0.0 1.7 0.00 0.00 0.00 37 1002.7
20200803053113 64 130 0.0 2.6 0.00 0.00 0.00 35 1002.8
20200803051549 65 130 0.0 4.3 0.00 0.00 0.00 30 1002.7
20200803050037 67 130 0.0 0.0 0.00 0.00 0.00 33 1002.5
20200803044602 68 130 0.0 3.5 0.00 0.00 0.00 26 1002.5
20200803043217 68 130 0.0 0.0 0.00 0.00 0.00 25 1002.4
20200803041601 68 130 0.0 0.0 0.00 0.00 0.00 25 1002.3
20200803040054 71 130 0.0 1.7 0.00 0.00 0.00 24 1002.2
20200803034532 79 282 0.0 4.3 0.00 0.00 0.00 20 1002.1
20200803033123 80 281 2.6 7.0 0.00 0.00 0.00 18 1001.9
20200803031549 81 286 3.5 7.0 0.00 0.00 0.00 18 1001.9
20200803030054 81 292 0.0 0.9 0.00 0.00 0.00 18 1001.9
20200803024550 84 294 0.9 7.8 0.00 0.00 0.00 16 1002.0
20200803023115 87 302 0.0 7.0 0.00 0.00 0.00 16 1002.1
20200803021533 90 294 5.2 8.7 0.00 0.00 0.00 14 1002.0
20200803020121 92 311 2.6 8.7 0.00 0.00 0.00 15 1001.9
20200803014555 92 317 4.3 9.6 0.00 0.00 0.00 14 1002.0
20200803013035 94 313 4.3 8.7 0.00 0.00 0.00 13 1001.9
20200803011553 95 313 7.0 10.4 0.00 0.00 0.00 14 1002.0
20200803010035 96 313 4.3 9.6 0.00 0.00 0.00 13 1002.0
20200803004537 97 360 5.2 9.6 0.00 0.00 0.00 12 1002.1
20200803003027 96 335 7.0 11.3 0.00 0.00 0.00 12 1002.2
20200803001529 97 321 6.1 11.3 0.00 0.00 0.00 12 1002.3
20200803000016 97 318 7.0 11.3 0.00 0.00 0.00 12 1002.5
20200802234514 97 307 7.8 11.3 0.00 0.00 0.00 12 1002.5
20200802233022 96 320 6.1 12.2 0.00 0.00 0.00 12 1002.5
20200802231531 95 328 4.3 10.4 0.00 0.00 0.00 13 1002.5
20200802230010 95 323 5.2 10.4 0.00 0.00 0.00 13 1002.6
20200802224506 95 332 3.5 10.4 0.00 0.00 0.00 14 1002.6
20200802223009 96 339 5.2 10.4 0.00 0.00 0.00 12 1002.5
20200802221505 97 332 4.3 11.3 0.00 0.00 0.00 11 1002.5
20200802220002 97 341 6.1 13.0 0.00 0.00 0.00 12 1002.6
20200802214640 98 321 8.7 20.0 0.00 0.00 0.00 13 1002.7
20200802213158 97 242 0.0 5.2 0.00 0.00 0.00 9 1002.8
20200802211647 97 182 1.7 12.2 0.00 0.00 0.00 11 1003.1
20200802210217 99 294 2.6 4.3 0.00 0.00 0.00 8 1003.3
20200802204725 99 207 1.7 7.8 0.00 0.00 0.00 8 1003.4
20200802203119 99 141 3.5 12.2 0.00 0.00 0.00 8 1003.7
20200802201605 100 143 0.0 10.4 0.00 0.00 0.00 9 1003.7
20200802200110 99 141 2.6 13.0 0.00 0.00 0.00 8 1004.1
20200802194551 99 160 4.3 13.9 0.00 0.00 0.00 8 1004.3
20200802193206 98 119 5.2 13.0 0.00 0.00 0.00 8 1004.5
20200802191632 98 96 8.7 13.0 0.00 0.00 0.00 8 1004.7
20200802190029 97 111 9.6 14.8 0.00 0.00 0.00 9 1004.8
20200802184526 97 109 3.5 7.8 0.00 0.00 0.00 9 1005.0
20200802183116 96 145 5.2 9.6 0.00 0.00 0.00 8 1005.2
20200802181523 96 154 2.6 11.3 0.00 0.00 0.00 8 1005.3
20200802180032 95 175 3.5 7.8 0.00 0.00 0.00 9 1005.5
20200802174531 94 217 0.0 7.8 0.00 0.00 0.00 11 1005.6
20200802173021 93 126 4.3 7.0 0.00 0.00 0.00 11 1005.8
20200802171507 91 173 4.3 9.6 0.00 0.00 0.00 13 1005.8
20200802170016 90 211 0.9 7.0 0.00 0.00 0.00 13 1005.9
20200802164653 89 163 4.3 9.6 0.00 0.00 0.00 14 1006.1
20200802163118 87 163 3.5 7.0 0.00 0.00 0.00 15 1006.2
20200802161644 86 161 4.3 8.7 0.00 0.00 0.00 15 1006.4
20200802160113 84 146 3.5 6.1 0.00 0.00 0.00 18 1006.5
20200802154732 79 164 0.0 0.0 0.00 0.00 0.00 26 1006.7
20200802153219 74 164 0.0 0.0 0.00 0.00 0.00 30 1006.8
20200802151554 71 164 0.0 0.0 0.00 0.00 0.00 33 1007.1
20200802150039 67 164 0.0 0.9 0.00 0.00 0.00 34 1007.0